Vertical_Velocity
-6 3 -11 1 -6 8 6 3 -1 -0 -3 4 -6 -2 1 3 -5 -0 -1 -1 -2 -2 1 -0 -1 -2 -2 -2 2 0 1 0 1 1 1 -1 1 -1 -0 -1 -0 0 -1 -2 -2 -1 1 -1 1 0 -0 -0 -1 -0
3 -3 -4 1 -4 1 1 9 4 0 -3 4 -3 -1 -1 3 0 -4 1 -2 -2 -4 1 -2 -3 -4 -2 -1 -3 0 1 1 1 1 0 -0 -1 -1 -0 3 -1 -1 -1 0 -2 1 0 -1 -2 -2 -2 0 -1 -1
-1 -6 -0 -2 -2 2 -8 2 3 1 -1 3 -2 0 1 2 5 -5 -3 -2 -4 -6 1 3 1 -2 -2 -0 -4 -4 -3 1 1 1 0 0 -0 -1 -0 -1 -1 -2 -1 -2 -1 -1 2 -2 2 -1 -3 -3 0 0
-1 -4 -1 -10 -8 2 -2 -3 -3 -4 5 -1 1 -1 2 0 2 -0 -3 2 -2 -5 -10 0 0 -2 0 -2 -1 1 -1 0 -1 -0 -1 -1 -0 0 -1 -1 -1 -1 -0 -1 -2 2 -0 -1 -1 -1 1 0 1 0
0 -1 -0 5 -3 -6 -6 -5 -7 -0 -0 -1 0 -2 1 -1 1 -0 0 2 -1 -3 -5 2 -2 1 3 2 -0 4 -2 13 -2 2 0 0 -3 -3 -2 -3 -4 1 -2 -1 -1 1 1 2 1 -0 1 0 -1 -2
-1 -3 -7 -16 -7 4 -3 -4 -0 -3 -4 -2 -1 -1 -1 -1 -4 -2 -6 0 2 -1 -0 -4 -0 -1 1 -0 -2 -2 -1 -2 0 4 4 0 -3 -1 0 -3 -1 0 -0 -1 -0 -0 -1 0 -1 -0 1 1 0 -0
0 -3 -10 -4 -2 0 3 -13 0 1 -6 -4 -2 -3 -1 2 -1 1 6 8 -1 -1 2 -1 -0 0 1 -1 4 12 15 5 1 -0 -3 -0 0 3 0 -3 -1 1 1 -0 0 2 -2 0 2 -1 1 0 -0 -1
-1 -0 -6 -8 -3 -3 -10 -2 0 3 -0 -7 -5 -2 0 6 2 2 0 0 1 -1 1 2 3 3 -0 3 24 -3 -2 -3 2 -1 -7 -6 0 -1 -10 -1 -1 -1 -1 -1 -1 1 -1 1 -1 -2 -0 -1 -1 -1
-5 -8 1 -6 1 -2 -1 -1 -3 4 5 -6 -9 -4 -1 -3 -1 -3 9 0 -1 2 6 4 9 9 -4 6 -4 6 1 3 4 -3 -4 3 -2 -6 -4 1 -1 -0 -1 -1 -1 0 0 -1 -1 1 -1 -1 -3 -1
-8 -7 -0 -2 -7 -4 2 5 -1 -3 1 -3 -9 -5 -1 -1 -0 -2 -1 2 3 -1 -3 -2 2 3 -3 1 -0 5 -2 1 -0 -4 -1 -0 -10 -1 -1 0 -0 -0 1 -1 -1 -2 0 0 -1 -2 -3 -3 -4 -0
1 -7 -1 -5 -2 -4 -2 -0 5 -5 -2 -3 -9 -0 -2 1 2 5 5 2 1 -2 -3 -5 -1 13 -0 5 7 1 7 -2 -1 -2 0 1 -5 1 -1 0 -1 -2 0 -1 -1 -1 -0 1 -0 -0 -1 -2 -1 -0
-4 1 0 -1 -6 -2 -2 -5 4 -2 -3 -1 -6 -3 -1 -0 4 4 3 2 -1 -2 1 -2 -1 -1 7 4 8 -0 -1 1 1 2 2 -1 -2 1 -0 -1 0 0 1 -0 -0 0 0 -1 -0 -0 -1 -1 -1 0
-5 7 4 1 -1 -1 -5 -5 2 -5 -2 -0 -5 -4 -0 4 2 2 5 7 6 3 3 4 2 -1 -1 3 -0 -1 -1 -1 -0 2 -1 -2 -0 1 0 0 -0 -0 -1 -1 -2 -1 -1 -1 -1 -1 -0 0 2 1
-6 2 -0 -2 2 2 3 -2 1 -4 -2 -2 -0 -5 2 5 1 7 12 6 7 7 11 3 8 6 2 3 1 -0 1 1 1 0 -3 -2 -1 -1 -2 1 3 2 2 1 1 -0 -0 -1 -1 0 1 1 1 1
3 -2 -1 1 -2 -1 2 2 -1 -2 1 -1 -2 -2 -1 1 4 5 4 3 2 9 5 3 5 3 3 3 -0 0 1 0 -0 0 2 -1 -2 -1 -0 0 -0 1 4 6 5 4 4 3 3 3 2 1 1 0
-3 -3 -7 4 -4 8 2 -1 -1 -1 0 -2 -5 -4 1 -2 -5 -1 5 5 7 13 5 -2 -1 3 2 -1 0 -1 1 -1 1 2 3 3 1 -0 -1 -1 -1 -3 -4 -3 -3 -0 2 3 6 7 4 2 0 0
-5 -5 6 -0 -1 3 -0 5 -1 2 -0 -4 -2 2 -1 -2 -2 -1 -3 2 4 3 6 7 -0 1 0 1 -1 -1 -1 -0 1 0 3 3 1 1 0 -0 -1 -1 -2 -1 0 0 1 -4 -7 -8 -5 0 2 3
-3 5 -2 0 2 -0 -1 -0 2 -0 -3 -3 -1 2 -1 -2 -3 1 0 -2 -1 2 0 5 2 -1 -1 -1 -1 2 1 2 1 1 -0 1 1 1 0 -1 -1 -1 -0 0 -1 -1 -0 0 -0 0 0 -2 -5 -7
2 2 1 3 1 3 3 -4 -1 -2 -3 -2 -2 -1 0 -1 -2 0 0 1 -1 -1 -1 -1 -4 -4 0 2 -2 -2 -1 -1 -1 -0 0 1 1 1 0 0 -1 -1 -1 -2 -1 -1 -1 -1 -1 -1 -0 1 1 -0
0 6 2 -1 -1 3 -0 -3 -2 -0 -1 -1 -0 -2 -0 0 -0 -1 -0 -1 -1 -1 -1 -11 -11 3 -2 4 2 1 -0 -0 -0 -0 -0 -0 -0 -0 -0 -1 -1 -1 -0 -1 -1 -0 -1 -1 1 0 0 0 -1 -0
15 -2 -1 -0 -2 0 0 -3 -2 -0 -1 -3 -1 -3 -1 -0 -2 -2 -2 -1 -3 -0 -1 3 4 3 2 2 2 1 -1 -2 -1 0 -1 -1 -1 -0 -0 0 -1 -1 -1 -1 -1 -1 0 0 -1 -0 -1 -1 -0 1
2 -3 1 -1 9 1 -0 -3 -1 -1 -1 -1 -1 0 -2 -2 -2 -0 -1 -2 -2 3 -0 1 0 -2 -0 0 -1 -2 -2 -0 1 -0 -1 -0 -1 -1 0 1 -0 -0 1 2 1 1 -1 -1 -1 -1 0 -0 -1 -1
1 2 11 14 2 -1 -3 1 -2 1 -1 -5 -1 -3 -3 -3 -2 -1 -2 -0 3 10 5 1 -0 0 2 2 1 0 1 1 0 -1 -0 -0 -1 -0 -0 -0 -1 -1 -1 0 1 0 -1 0 -0 -1 -0 0 -0 -1
-4 9 12 -2 -2 -1 1 -2 -0 1 -1 -0 -1 -1 -1 -4 -1 -0 2 4 0 1 1 1 1 1 -1 -0 1 0 -1 -1 -0 -1 -1 -1 -0 -1 -1 -1 -1 0 1 -2 -1 -1 -1 -0 -1 -2 -1 -1 -2 -1
41 -0 -4 -1 -1 -1 -0 -2 0 1 -1 -2 -2 -1 -0 -2 -1 -1 1 -0 -0 -0 1 -1 -1 -1 1 0 -0 1 2 2 1 1 1 0 -1 -0 0 -1 -2 2 0 -1 -1 -1 -0 1 0 -0 -0 -0 0 0
-3 1 -2 -0 -3 -2 -0 -2 -1 -1 -2 -2 -1 -1 -3 -4 -0 -2 -3 -6 -4 -1 -1 0 1 -1 -0 1 1 -0 1 1 -0 -0 -1 -1 -1 -1 -1 -1 -3 -3 -0 0 -1 -0 -0 -1 -1 -2 -1 -2 -3 -2
-3 1 -1 -1 -1 1 1 1 0 -1 -0 -2 -2 -3 -2 -3 -0 2 2 -3 -3 -2 -1 -2 1 1 -0 1 3 2 1 -0 -0 -0 -1 -0 -0 -0 -0 -1 -0 0 -1 -1 -0 -0 -1 -1 -3 -3 -2 -1 -4 -5
-2 -0 0 1 1 2 0 1 -0 -2 -2 -1 -0 -2 -5 -4 -9 1 2 -4 -2 -1 -3 2 4 3 1 -0 -0 0 -0 -1 -1 -0 0 -1 -1 -0 0 0 1 1 2 1 0 -0 -1 -1 -1 -1 -1 0 2 -3
-3 2 3 -1 1 -1 -3 -2 -4 -1 3 2 -3 -3 -9 -3 -3 1 1 -3 -2 -0 -1 -2 0 1 1 1 1 0 -0 -1 -1 -1 -1 -2 -1 -0 -0 0 -0 -1 -2 -1 -3 -3 -2 -1 -1 -2 -1 -1 -1 -1
1 -2 -7 -4 -2 -6 2 -1 -4 1 -1 -1 -4 -12 -10 -4 0 -1 -1 -1 -3 1 -0 -1 -1 0 -0 -0 -1 -0 -0 -0 -0 1 2 1 1 -0 -1 -1 -2 -2 -1 -1 0 0 -5 -4 -2 -2 -3 -1 -1 0
2 5 -1 1 -8 2 -1 -1 -3 -2 -4 -5 0 -11 -8 -11 -4 -1 -3 1 -0 -2 -2 3 0 -0 0 3 -0 -2 -0 0 -1 -0 -1 -0 -1 -0 -0 -0 -0 -0 -0 -1 -1 -2 -1 -2 -3 -1 -2 -2 -3 -1
5 -1 2 -3 -5 5 3 -0 -1 -2 -3 -3 -4 -9 -4 -8 -17 -6 1 4 6 1 -2 -3 1 4 2 -2 -1 0 0 0 -0 -1 -1 -1 -0 -0 -0 -2 -3 -4 -3 -2 -2 -1 -1 -2 -2 -2 -3 -2 -1 -1
-1 3 3 -0 -4 -6 -5 8 -3 -8 -5 -10 -8 -4 -3 -6 -16 -7 1 5 4 1 -2 -2 -1 -1 0 0 1 2 0 0 -1 -1 -1 1 3 -0 -3 -4 -3 -1 -0 -0 -1 -0 -1 -2 -3 -2 -1 -2 -1 0
Height
3059 3055 3051 3045 3043 3040 3037 3034 3031 3029 3025 3020 3017 3014 3012 3009 3005 3005 3004 3002 3001 2998 2998 2997 3000 3001 3002 3001 3002 3003 3005 3004 3004 3004 3004 3004 3004 3004 3004 3005 3005 3006 3007 3008 3009 3010 3011 3010 3012 3013 3014 3013 3013 3013
3056 3053 3047 3041 3037 3036 3034 3030 3026 3024 3020 3016 3013 3010 3007 3005 3002 2999 3000 2998 2996 2995 2994 2993 2993 2996 2999 3000 3001 3001 3002 3002 3002 3003 3004 3003 3003 3003 3004 3005 3005 3007 3007 3008 3009 3009 3008 3009 3010 3010 3011 3012 3011 3011
3052 3049 3043 3038 3033 3031 3029 3027 3021 3017 3014 3012 3009 3007 3004 3001 2998 2995 2993 2992 2991 2988 2989 2988 2989 2991 2993 2996 2997 3000 3001 3001 3001 3002 3002 3002 3003 3003 3003 3004 3004 3004 3004 3005 3007 3007 3007 3007 3008 3009 3009 3009 3009 3009
3049 3044 3038 3033 3028 3027 3022 3019 3017 3014 3010 3006 3004 3001 2999 2997 2994 2990 2988 2987 2985 2983 2981 2983 2983 2985 2988 2991 2994 2997 2998 2999 3000 3001 3001 3001 3002 3002 3002 3002 3002 3003 3003 3003 3004 3005 3005 3006 3006 3006 3007 3007 3007 3007
3043 3038 3036 3031 3026 3023 3018 3014 3010 3009 3005 3002 2998 2996 2994 2991 2988 2984 2982 2981 2978 2981 2975 2976 2977 2980 2984 2987 2991 2993 2995 2997 2998 2999 2999 3000 3000 3001 2999 2998 2996 2998 2999 3000 3000 3001 3002 3002 3002 3003 3004 3004 3005 3004
3037 3035 3031 3027 3024 3019 3014 3011 3005 3001 2998 2996 2993 2991 2988 2985 2980 2976 2976 2976 2973 2972 2973 2972 2973 2976 2979 2983 2987 2990 2992 2994 2995 2996 2997 2997 2998 2999 2995 2992 2993 2994 2995 2996 2997 2997 2997 2996 2998 2999 3000 3001 3001 3001
3034 3032 3029 3024 3019 3015 3010 3006 3001 2996 2991 2990 2988 2986 2982 2978 2975 2974 2973 2971 2971 2970 2969 2970 2969 2970 2975 2980 2984 2986 2988 2991 2992 2992 2992 2993 2994 2994 2989 2986 2989 2990 2990 2991 2992 2992 2993 2992 2993 2994 2995 2995 2995 2996
3030 3026 3024 3021 3017 3013 3008 3001 2997 2993 2988 2985 2983 2981 2977 2973 2969 2969 2968 2968 2969 2967 2968 2967 2966 2968 2972 2976 2980 2983 2986 2987 2987 2988 2989 2989 2990 2988 2982 2980 2982 2983 2983 2983 2984 2985 2987 2988 2988 2989 2989 2989 2989 2990
3025 3024 3021 3018 3013 3008 3002 2996 2993 2990 2985 2981 2979 2977 2974 2971 2966 2965 2965 2965 2966 2969 2966 2964 2964 2966 2970 2972 2976 2980 2982 2983 2983 2982 2983 2985 2982 2979 2976 2976 2977 2977 2977 2977 2978 2978 2979 2981 2982 2982 2983 2983 2983 2983
3019 3018 3017 3014 3009 3006 3001 2994 2989 2988 2983 2978 2977 2975 2973 2971 2968 2967 2966 2965 2965 2964 2963 2961 2962 2965 2968 2971 2974 2979 2979 2980 2978 2979 2978 2975 2971 2971 2971 2971 2972 2972 2972 2973 2973 2973 2972 2973 2975 2975 2976 2976 2976 2977
3011 3012 3010 3008 3004 3000 2998 2993 2988 2985 2981 2977 2974 2973 2972 2970 2968 2967 2966 2965 2964 2963 2961 2961 2961 2963 2966 2968 2972 2975 2974 2976 2975 2975 2974 2970 2965 2965 2965 2966 2966 2965 2966 2966 2967 2966 2967 2968 2968 2968 2968 2969 2970 2971
3005 3005 3003 3002 2999 2996 2993 2990 2985 2982 2978 2976 2973 2971 2970 2968 2967 2967 2963 2963 2961 2961 2959 2959 2961 2963 2965 2967 2969 2971 2972 2972 2970 2970 2970 2965 2963 2962 2961 2961 2961 2961 2961 2961 2961 2961 2961 2961 2961 2961 2961 2961 2962 2964
2998 2999 2997 2995 2993 2991 2988 2986 2982 2979 2977 2974 2971 2970 2968 2967 2966 2963 2960 2959 2958 2957 2957 2958 2959 2961 2963 2966 2967 2968 2968 2968 2968 2966 2963 2962 2961 2960 2959 2958 2958 2957 2957 2956 2955 2955 2955 2954 2954 2954 2954 2954 2956 2958
2989 2990 2990 2990 2988 2985 2983 2981 2979 2977 2975 2973 2970 2969 2967 2964 2963 2961 2959 2958 2957 2955 2956 2956 2957 2959 2961 2963 2964 2965 2965 2965 2963 2961 2959 2959 2959 2959 2958 2958 2958 2957 2956 2954 2953 2952 2951 2951 2950 2950 2950 2951 2952 2954
2981 2983 2985 2984 2981 2980 2979 2977 2976 2974 2972 2971 2969 2966 2963 2963 2961 2959 2958 2956 2955 2955 2955 2956 2957 2959 2959 2961 2961 2962 2962 2960 2958 2956 2956 2957 2958 2959 2959 2959 2959 2958 2957 2956 2954 2953 2951 2950 2949 2949 2949 2948 2949 2950
2975 2978 2980 2978 2976 2975 2975 2974 2973 2971 2968 2967 2965 2963 2962 2961 2959 2957 2956 2955 2954 2953 2955 2956 2956 2957 2957 2958 2958 2958 2958 2956 2956 2954 2955 2956 2958 2959 2959 2960 2959 2959 2958 2957 2955 2954 2953 2952 2950 2949 2947 2946 2945 2945
2969 2973 2974 2972 2971 2971 2970 2970 2969 2966 2964 2962 2960 2959 2958 2957 2957 2955 2954 2953 2953 2954 2954 2955 2955 2955 2955 2955 2955 2955 2955 2955 2954 2953 2953 2955 2957 2958 2958 2959 2959 2958 2957 2957 2956 2955 2954 2952 2950 2948 2947 2945 2944 2942
2964 2966 2967 2966 2966 2966 2966 2965 2964 2962 2959 2958 2956 2955 2954 2954 2953 2953 2951 2952 2952 2952 2953 2953 2953 2953 2954 2953 2952 2953 2953 2954 2953 2952 2952 2954 2955 2956 2957 2957 2957 2957 2956 2955 2954 2953 2951 2950 2948 2947 2945 2944 2943 2942
2958 2960 2961 2960 2961 2962 2961 2960 2961 2958 2956 2954 2953 2951 2949 2948 2947 2948 2948 2948 2948 2949 2951 2951 2951 2949 2950 2951 2952 2952 2952 2952 2952 2952 2952 2953 2954 2954 2955 2954 2954 2953 2953 2951 2950 2948 2947 2945 2943 2942 2940 2940 2939 2939
2953 2954 2955 2956 2957 2957 2957 2957 2956 2954 2952 2952 2950 2948 2945 2943 2941 2942 2943 2943 2944 2944 2944 2944 2946 2948 2948 2949 2950 2950 2950 2950 2950 2951 2951 2951 2952 2951 2951 2950 2949 2948 2947 2946 2944 2942 2940 2938 2937 2936 2935 2934 2933 2932
2947 2948 2950 2951 2952 2954 2954 2953 2952 2951 2949 2947 2946 2944 2942 2940 2938 2937 2937 2939 2939 2938 2938 2940 2941 2942 2943 2943 2944 2945 2946 2947 2947 2947 2947 2947 2946 2946 2945 2944 2943 2942 2941 2939 2937 2936 2935 2934 2932 2931 2930 2928 2927 2927
2941 2943 2945 2947 2949 2949 2949 2948 2948 2947 2946 2945 2944 2941 2939 2937 2935 2933 2931 2932 2934 2935 2933 2933 2933 2933 2933 2934 2935 2938 2939 2940 2940 2940 2940 2939 2938 2938 2937 2937 2936 2935 2934 2933 2931 2930 2929 2928 2926 2925 2924 2923 2922 2921
2936 2939 2941 2942 2945 2945 2945 2943 2944 2943 2943 2941 2940 2938 2936 2933 2932 2930 2928 2928 2930 2931 2929 2929 2928 2928 2928 2928 2928 2929 2931 2932 2933 2933 2933 2933 2933 2932 2932 2931 2930 2929 2927 2926 2925 2924 2922 2921 2919 2918 2917 2916 2915 2914
2934 2936 2937 2938 2939 2940 2940 2940 2940 2940 2939 2938 2936 2935 2933 2931 2928 2926 2925 2925 2923 2923 2924 2924 2924 2924 2924 2923 2923 2924 2924 2925 2926 2927 2928 2928 2927 2927 2926 2925 2924 2923 2922 2921 2919 2917 2916 2914 2913 2911 2910 2909 2908 2907
2930 2931 2933 2932 2934 2935 2935 2935 2936 2936 2936 2935 2933 2932 2931 2929 2926 2924 2924 2923 2921 2920 2919 2919 2919 2919 2918 2918 2918 2919 2920 2921 2922 2922 2922 2922 2922 2921 2920 2919 2917 2916 2915 2914 2913 2911 2910 2908 2906 2905 2903 2902 2900 2899
2923 2924 2926 2925 2928 2931 2931 2931 2932 2932 2932 2932 2931 2930 2928 2926 2925 2924 2924 2922 2919 2917 2915 2914 2914 2914 2913 2914 2914 2915 2916 2916 2917 2917 2917 2917 2916 2915 2913 2912 2911 2909 2908 2907 2905 2904 2902 2900 2898 2896 2894 2892 2889 2887
2917 2917 2918 2921 2924 2925 2926 2927 2928 2929 2928 2928 2927 2926 2925 2924 2923 2923 2921 2920 2917 2915 2913 2911 2911 2910 2910 2911 2911 2911 2911 2912 2912 2912 2911 2910 2909 2908 2906 2905 2904 2903 2902 2900 2898 2896 2893 2891 2888 2885 2883 2880 2877 2873
2910 2911 2915 2919 2919 2921 2922 2923 2923 2923 2923 2923 2922 2922 2922 2922 2921 2920 2917 2916 2914 2913 2912 2910 2910 2909 2909 2908 2909 2908 2908 2908 2908 2907 2905 2904 2903 2901 2900 2898 2897 2896 2894 2892 2889 2886 2883 2880 2877 2873 2870 2867 2865 2861
2904 2907 2911 2913 2916 2916 2916 2917 2918 2918 2918 2916 2915 2915 2913 2912 2913 2912 2910 2910 2909 2908 2907 2908 2907 2906 2906 2906 2906 2905 2905 2904 2903 2902 2900 2898 2897 2896 2893 2892 2890 2887 2885 2882 2878 2873 2870 2867 2864 2861 2857 2853 2850 2846
2900 2904 2907 2908 2909 2909 2911 2912 2911 2911 2909 2907 2905 2904 2903 2902 2903 2902 2901 2901 2902 2901 2900 2899 2900 2901 2901 2901 2901 2901 2900 2899 2898 2897 2895 2893 2891 2890 2888 2886 2883 2880 2877 2873 2870 2866 2860 2855 2850 2845 2841 2837 2833 2831
2897 2898 2899 2900 2900 2902 2903 2903 2902 2901 2900 2898 2897 2894 2892 2889 2889 2890 2891 2892 2893 2892 2891 2891 2891 2892 2894 2895 2895 2895 2895 2894 2893 2891 2890 2888 2886 2884 2881 2878 2875 2872 2867 2863 2858 2853 2849 2844 2840 2836 2832 2828 2824 2822
2889 2890 2891 2892 2893 2894 2894 2893 2893 2891 2890 2889 2887 2886 2883 2880 2877 2879 2882 2883 2884 2883 2883 2883 2884 2884 2884 2885 2887 2888 2888 2888 2887 2886 2885 2883 2881 2878 2876 2872 2868 2863 2859 2853 2848 2844 2841 2837 2833 2830 2827 2824 2820 2817
2877 2879 2881 2883 2884 2884 2886 2886 2883 2881 2880 2878 2877 2875 2873 2872 2869 2871 2872 2874 2875 2874 2874 2875 2876 2877 2878 2879 2881 2882 2882 2883 2882 2881 2880 2878 2876 2874 2871 2868 2863 2857 2851 2847 2843 2839 2836 2833 2830 2826 2823 2820 2817 2814